FW3012 Weather Reports


time (UTC)temp
C
wind
direction
speed
KPH
gust
KPH
rain 1hr
cm
rain 24hr
cm
rain mn
cm
humidity
%
barometer
mb
20260507040041 17 293 6.4 14.5 0.00 0.00 0.00 56 993.3
20260507033041 15 203 1.6 6.4 0.00 0.00 0.00 61 993.2
20260507030041 13 0.0 3.2 0.00 0.00 0.00 67 993.1
20260507023041 12 180 1.6 4.8 0.00 0.00 0.00 71 992.9
20260507020046 11 158 1.6 8.0 0.00 0.00 0.00 71 992.7
20260507013041 13 293 3.2 9.7 0.00 0.00 0.00 64 992.6
20260507010040 14 293 4.8 9.7 0.00 0.00 0.00 60 992.4
20260507003101 15 293 3.2 6.4 0.00 0.00 0.00 58 992.4
20260507000101 16 293 4.8 9.7 0.00 0.00 0.00 56 992.3
20260506233041 16 293 3.2 6.4 0.00 0.00 0.00 54 992.2
20260506223041 17 293 3.2 6.4 0.00 0.00 0.00 50 992.1
20260506220040 18 293 3.2 6.4 0.00 0.00 0.00 51 992.1
20260506213121 18 270 3.2 9.7 0.00 0.00 0.00 51 992.1
20260506210413 17 293 1.6 6.4 0.00 0.00 0.00 51 992.1
20260506203041 18 293 1.6 6.4 0.00 0.00 0.00 51 992.1
20260506200041 17 0.0 4.8 0.00 0.00 0.00 52 992.0
20260506193041 17 0.0 3.2 0.00 0.00 0.00 53 992.0
20260506190413 17 0.0 3.2 0.00 0.00 0.00 54 992.0
20260506183041 17 0.0 3.2 0.00 0.00 0.00 54 992.0
20260506180041 17 0.0 0.0 0.00 0.00 0.00 54 991.9
20260506173101 18 0.0 0.0 0.00 0.00 0.00 51 991.7
20260506170041 20 0.0 0.0 0.00 0.00 0.00 47 991.6
20260506163101 22 0.0 1.6 0.00 0.00 0.00 42 991.4
20260506160041 25 315 1.6 6.4 0.00 0.00 0.00 38 991.2
20260506153041 25 315 4.8 11.3 0.00 0.00 0.00 34 991.1
20260506143121 25 293 1.6 6.4 0.00 0.00 0.00 35 991.3
20260506140041 26 0 1.6 8.0 0.00 0.00 0.00 30 991.3
20260506133040 26 315 3.2 11.3 0.00 0.00 0.00 30 991.3
20260506123101 26 315 6.4 16.1 0.00 0.00 0.00 30 991.6
20260506120041 26 315 6.4 16.1 0.00 0.00 0.00 29 991.8
20260506113041 26 0 6.4 14.5 0.00 0.00 0.00 29 992.0
20260506110040 26 315 6.4 19.3 0.00 0.00 0.00 28 992.1
20260506103044 26 293 6.4 19.3 0.00 0.00 0.00 29 992.3
20260506093102 25 293 6.4 14.5 0.00 0.00 0.00 32 992.6
20260506090042 25 293 4.8 17.7 0.00 0.00 0.00 30 992.8
20260506083414 25 293 4.8 14.5 0.00 0.00 0.00 34 992.9
20260506080413 25 248 3.2 9.7 0.00 0.00 0.00 33 993.1
20260506060106 20 293 4.8 16.1 0.00 0.00 0.00 43 993.4
20260506050416 17 293 4.8 12.9 0.00 0.00 0.00 47 993.8
20260506043041 16 270 4.8 14.5 0.00 0.00 0.00 47 993.8